Geneva, Switzerland

11:38 AM CET on January 16, 2018 (GMT +0100)
Cointrin

Weather History for LSGG - November, 2012

Change the Weather History Date:

Friday, November 30, 2012

  Actual Average Record
Temperature  
Mean Temperature 36 °F -  
Max Temperature 39 °F 40 °F 55 °F (2011)
Min Temperature 34 °F 30 °F 15 °F (2010)
Degree Days  
Heating Degree Days 28    
Moisture  
Dew Point 27 °F    
Average Humidity 65    
Maximum Humidity 81    
Minimum Humidity 44    
Precipitation  
Precipitation 0.00 in 0.11 in - ()
Sea Level Pressure  
Sea Level Pressure 29.68 in    
Wind  
Wind Speed 11 mph ()    
Max Wind Speed 20 mph    
Max Gust Speed 32 mph    
Visibility 6.2 miles    
Events      
Averages and records for this station are not official NWS values.
T = Trace of Precipitation, MM = Missing Value Source: Averaged Metar Reports

Daily Weather History Graph

Daily Weather History Graph

Search for Another Location

Airport or City:

Trip Planner

Search our weather history database for the weather conditions in past years. The results will help you decide how hot, cold, wet, or windy it might be!

Date:

Astronomy

Nov. 30, 2012 Rise Set
Actual Time 7:56 AM CET 4:51 PM CET
Civil Twilight 7:22 AM CET 5:25 PM CET
Nautical Twilight 6:45 AM CET 6:02 PM CET
Astronomical Twilight 6:09 AM CET 6:39 PM CET
Moon 6:32 PM CET (11/30) 9:17 AM CET (11/30)
Length of Visible Light 10h 02m
Length of Day
8h 54m
Full, 97% of the Moon is Illuminated
Nov 30
Full
Dec 6
Last Quarter
Dec 13
New
Dec 20
First Quarter
Dec 28
Full

Hourly Weather History & Observations

Time (CET) Temp. Windchill Dew Point Humidity Pressure Visibility Wind Dir Wind Speed Gust Speed Precip Events Conditions
12:00 AM 36 °F - 24 °F 51% 29.69 in - NNE 8.1 mph - -  
12:20 AM 35.6 °F 28.6 °F 24.8 °F 65% 29.62 in 6.2 mi NNE 9.2 mph - N/A   Partly Cloudy
12:50 AM 35.6 °F 29.2 °F 26.6 °F 70% 29.62 in 6.2 mi NNE 8.1 mph - N/A   Partly Cloudy
1:00 AM 36 °F - 25 °F 52% 29.68 in 44 mi North 10.4 mph - -   Scattered Clouds
1:34 AM 35.6 °F 28.0 °F 26.6 °F 70% 29.62 in 6.2 mi NNE 10.4 mph - N/A   Scattered Clouds
1:50 AM 35.6 °F 29.2 °F 26.6 °F 70% 29.62 in 6.2 mi North 8.1 mph - N/A   Scattered Clouds
2:31 AM 35.6 °F 30.7 °F 26.6 °F 70% 29.62 in 6.2 mi NNE 5.8 mph - N/A   Scattered Clouds
2:50 AM 33.8 °F 28.6 °F 26.6 °F 75% 29.62 in 6.2 mi NE 5.8 mph - N/A   Scattered Clouds
3:00 AM 35 °F - 25 °F 55% 29.68 in - NE 6.9 mph - -  
3:20 AM 33.8 °F 29.6 °F 26.6 °F 75% 29.62 in 6.2 mi NNE 4.6 mph - N/A   Partly Cloudy
3:50 AM 33.8 °F 28.6 °F 26.6 °F 75% 29.62 in 6.2 mi NNE 5.8 mph - N/A   Partly Cloudy
4:20 AM 33.8 °F 27.0 °F 26.6 °F 75% 29.62 in 6.2 mi NNE 8.1 mph - N/A   Partly Cloudy
4:50 AM 35.6 °F 28.0 °F 28.4 °F 75% 29.59 in 6.2 mi NNE 10.4 mph - N/A   Partly Cloudy
5:00 AM 36 °F - 27 °F 61% 29.67 in - NNE 10.4 mph - -  
5:20 AM 35.6 °F 28.0 °F 30.2 °F 81% 29.62 in 6.2 mi NNE 10.4 mph - N/A   Partly Cloudy
5:50 AM 37.4 °F 28.9 °F 30.2 °F 75% 29.62 in 6.2 mi NNE 13.8 mph - N/A   Partly Cloudy
6:00 AM 36 °F - 29 °F 66% 29.67 in - NNE 12.7 mph - -  
6:20 AM 37.4 °F 29.8 °F 30.2 °F 75% 29.62 in 6.2 mi NNE 11.5 mph - N/A   Scattered Clouds
6:50 AM 35.6 °F 27.1 °F 28.4 °F 75% 29.62 in 6.2 mi NNE 12.7 mph - N/A   Scattered Clouds
7:00 AM 36 °F - 28 °F 62% 29.68 in 44 mi NNE 11.5 mph - -   Partly Cloudy
7:20 AM 35.6 °F 26.2 °F 30.2 °F 81% 29.62 in 6.2 mi NNE 15.0 mph - N/A   Scattered Clouds
7:50 AM 37.4 °F 27.5 °F 30.2 °F 75% 29.62 in 6.2 mi NE 18.4 mph - N/A   Mostly Cloudy
8:00 AM 36 °F - 29 °F 67% 29.69 in - NNE 12.7 mph - -  
8:20 AM 35.6 °F 26.6 °F 30.2 °F 81% 29.62 in 6.2 mi NNE 13.8 mph - N/A   Mostly Cloudy
8:50 AM 37.4 °F 28.9 °F 30.2 °F 75% 29.65 in 6.2 mi NNE 13.8 mph - N/A   Scattered Clouds
9:00 AM 36 °F - 29 °F 65% 29.70 in - NNE 11.5 mph - -  
9:20 AM 35.6 °F 26.2 °F 28.4 °F 75% 29.65 in 6.2 mi NNE 15.0 mph - N/A   Scattered Clouds
9:50 AM 37.4 °F 29.8 °F 30.2 °F 75% 29.65 in 6.2 mi NNE 11.5 mph - N/A   Scattered Clouds
10:20 AM 39.2 °F 29.6 °F 28.4 °F 65% 29.65 in 6.2 mi NE 19.6 mph 32.2 mph N/A   Scattered Clouds
10:50 AM 37.4 °F 27.2 °F 28.4 °F 70% 29.65 in 6.2 mi NE 19.6 mph - N/A   Mostly Cloudy
11:00 AM 38 °F - 28 °F 57% 29.71 in - NNE 18.4 mph - -  
11:20 AM 37.4 °F 28.2 °F 26.6 °F 65% 29.65 in 6.2 mi NNE 16.1 mph - N/A   Mostly Cloudy
11:50 AM 39.2 °F 30.5 °F 28.4 °F 65% 29.65 in 6.2 mi NNE 16.1 mph - N/A   Mostly Cloudy
12:00 PM 38 °F - 26 °F 51% 29.71 in - NNE 17.3 mph - -  
12:20 PM 37.4 °F 27.8 °F 28.4 °F 70% 29.65 in 6.2 mi NNE 17.3 mph - N/A   Mostly Cloudy
12:50 PM 39.2 °F 29.6 °F 28.4 °F 65% 29.65 in 6.2 mi NE 19.6 mph - N/A   Mostly Cloudy
1:00 PM 39 °F - 26 °F 48% 29.71 in 44 mi NNE 19.6 mph - -   Mostly Cloudy
1:20 PM 39.2 °F 29.6 °F 26.6 °F 61% 29.65 in 6.2 mi NE 19.6 mph - N/A   Mostly Cloudy
1:50 PM 39.2 °F 30.5 °F 24.8 °F 56% 29.65 in 6.2 mi NNE 16.1 mph - N/A   Mostly Cloudy
2:00 PM 39 °F - 25 °F 44% 29.71 in - NNE 19.6 mph - -  
2:20 PM 39.2 °F 29.8 °F 26.6 °F 61% 29.65 in 6.2 mi NNE 18.4 mph - N/A   Mostly Cloudy
2:50 PM 39.2 °F 30.2 °F 24.8 °F 56% 29.68 in 6.2 mi NE 17.3 mph 29.9 mph N/A   Mostly Cloudy
3:00 PM 38 °F - 24 °F 46% 29.72 in - NNE 13.8 mph - -  
3:20 PM 39.2 °F 30.5 °F 26.6 °F 61% 29.68 in 6.2 mi NNE 16.1 mph - N/A   Scattered Clouds
3:50 PM 37.4 °F 28.5 °F 26.6 °F 65% 29.68 in 6.2 mi NNE 15.0 mph 28.8 mph N/A   Scattered Clouds
4:20 PM 37.4 °F 28.9 °F 24.8 °F 60% 29.68 in 6.2 mi NNE 13.8 mph 25.3 mph N/A   Scattered Clouds
4:50 PM 37.4 °F 28.9 °F 24.8 °F 60% 29.68 in 6.2 mi NNE 13.8 mph - N/A   Scattered Clouds
5:00 PM 36 °F - 23 °F 46% 29.75 in - NNE 12.7 mph - -  
5:20 PM 37.4 °F 30.3 °F 24.8 °F 60% 29.71 in 6.2 mi NNE 10.4 mph - N/A   Scattered Clouds
5:50 PM 37.4 °F 29.8 °F 23.0 °F 56% 29.71 in 6.2 mi NNE 11.5 mph - N/A   Mostly Cloudy
6:00 PM 36 °F - 22 °F 44% 29.77 in - NNE 11.5 mph - -  
6:20 PM 35.6 °F 27.5 °F 23.0 °F 60% 29.71 in 6.2 mi NNE 11.5 mph - N/A   Mostly Cloudy
6:50 PM 35.6 °F 27.1 °F 24.8 °F 65% 29.71 in 6.2 mi NNE 12.7 mph - N/A   Mostly Cloudy
7:00 PM 36 °F - 23 °F 48% 29.78 in 25 mi NNE 13.8 mph - -   Mostly Cloudy
7:20 PM 35.6 °F 27.1 °F 24.8 °F 65% 29.71 in 6.2 mi NNE 12.7 mph - N/A   Mostly Cloudy
7:50 PM 35.6 °F 26.6 °F 26.6 °F 70% 29.71 in 6.2 mi NNE 13.8 mph - N/A   Mostly Cloudy
8:00 PM 36 °F - 25 °F 53% 29.78 in - NNE 15.0 mph - -  
8:20 PM 35.6 °F 27.1 °F 26.6 °F 70% 29.74 in 6.2 mi NNE 12.7 mph - N/A   Mostly Cloudy
8:50 PM 35.6 °F 27.5 °F 24.8 °F 65% 29.74 in 6.2 mi NNE 11.5 mph - N/A   Mostly Cloudy
9:00 PM 36 °F - 25 °F 53% 29.80 in - NNE 11.5 mph - -  
9:20 PM 35.6 °F 27.5 °F 26.6 °F 70% 29.74 in 6.2 mi NNE 11.5 mph - N/A   Mostly Cloudy
9:50 PM 35.6 °F 27.1 °F 26.6 °F 70% 29.74 in 6.2 mi NNE 12.7 mph - N/A   Mostly Cloudy
10:20 PM 35.6 °F 27.1 °F 26.6 °F 70% 29.77 in 6.2 mi NNE 12.7 mph - N/A   Mostly Cloudy
10:50 PM 35.6 °F 28.0 °F 26.6 °F 70% 29.77 in 6.2 mi NNE 10.4 mph - N/A   Mostly Cloudy
11:00 PM 36 °F - 26 °F 54% 29.83 in - NNE 13.8 mph - -  
11:20 PM 35.6 °F 27.5 °F 26.6 °F 70% 29.77 in 6.2 mi NNE 11.5 mph - N/A   Mostly Cloudy
11:50 PM 35.6 °F 27.5 °F 26.6 °F 70% 29.77 in 6.2 mi NNE 11.5 mph - N/A   Mostly Cloudy